OBJECT A

基本信息
目录编号:
68792
目录名称:
OBJECT A
国际标识:
2026-088A
轨道中心:
EARTH
物体状态:
在轨
发射日期:
2026-04-23 UTC
国别:
日本 (JP)
轨道信息
数据来源: 国际轨道数据
星历时间: 2026-09-12T06:16:53+0800
半长轴: 6922.224km
偏心率: 0.0014654
轨道倾角: 97.519°
近地点辐角: 164.821°
升交点赤经: 42.109°
平近点角: 195.346°
近地点: 533.943km
远地点: 554.231km
周期: 95.527分钟
每日圈数: 15.074201
详细信息
发射场:
RLLC
轨道高度:
LEO
数据来源:
AOE Integration Group
参考系:
TEME
时间系统:
UTC
历元类型:
SGP4
2D轨道图
3D轨道图
轨道高度分析图
轨道倾角分析图
轨道综合分析图
查看轨道综合分析图